Tracking 17780 objects as of 27-July-2016
HD Live streaming from Space Station
objects crossing your sky now

SCOUT G-1 DEB

Track SCOUT G-1 DEB now!
10-day predictions


NORAD ID: 22707
Int'l Code: 1993-041D
Perigee: 718.2 km
Apogee: 924.8 km
Inclination: 90.1 °
Period: 101.2 minutes
Semi major axis: 7192 km
RCS: 0.041 m2 (small)
Launch date: June 25, 1993
Source: United States (US)
Launch site: AIR FORCE WESTERN TEST RANGE (AFWTR)

Note: This is SATELLITE DEBRIS
Your satellite tracking list
Your tracking list is empty





NASA's NSSDC Master Catalog

Two Line Element Set (TLE):
1 22707U 93041D   16209.10183444  .00000163  00000-0  60943-4 0  9994
2 22707  90.0734 246.1069 0143603 246.9210 111.6790 14.23262704195609
Source of the keplerian elements: AFSPC

N2YO: 886